Location: *
(46.3500°N, 10.9000°E)
Time: 08:14:41
(UTC+00:00)

CZ-2C R/B - Pass Details

Date: 09 April 2020
Orbit: 639 x 705 km, 98.4° (Epoch: 24 May)

Event Time Altitude Azimuth Distance (km) Brightness Sun altitude
Rises 18:48:19 0° 19° (NNE) 3,080 7.2 -9.4°
Reaches altitude 10° 18:50:41 10° 26° (NNE) 2,149 6.3 -9.7°
Maximum altitude 18:55:10 44° 99° (E) 948 4.1 -10.5°
Drops below altitude 10° 18:59:33 10° 171° (S) 2,094 6.0 -11.1°
Sets 19:01:50 0° 178° (S) 2,991 6.8 -11.5°
